Temp
15 13 13 14 15 16 18 18 19 21 23 22 22 23 24 24 24 23 24 24 23 21 20 22 21 21 21 21 21 20 20 20 20 20 19 17 16 16 16 15 15 15 15 14
13 12 15 16 16 16 16 17 18 21 23 23 22 24 24 24 24 24 24 24 23 20 19 20 21 21 20 20 20 20 20 20 20 19 18 17 16 15 15 14 14 14 14 13
12 14 15 16 16 16 16 16 17 16 22 24 22 21 22 24 24 24 24 24 22 20 19 19 18 19 19 19 19 18 18 18 18 17 17 16 16 15 15 14 13 13 13 12
13 15 15 14 15 16 15 17 18 17 21 19 21 18 21 23 24 24 23 23 21 20 19 18 17 18 18 18 18 18 18 18 17 17 17 16 15 15 14 14 14 13 12 12
11 13 13 14 13 15 16 17 16 17 18 19 20 20 21 23 24 24 22 22 21 20 19 17 16 17 17 17 17 17 17 17 17 17 16 15 15 14 14 14 13 13 12 11
12 13 12 14 15 14 15 16 15 16 18 18 20 20 21 23 24 23 22 21 21 20 18 16 17 17 16 16 16 15 15 15 15 15 15 15 14 14 13 13 12 12 11 10
11 11 12 12 12 14 14 14 14 16 17 18 21 20 22 24 24 24 22 20 20 19 17 16 14 14 15 15 15 15 14 14 14 13 13 13 12 12 12 11 11 10 10 9
11 12 11 11 11 14 14 12 16 17 17 19 22 20 22 23 23 23 22 20 19 18 17 15 14 15 15 15 15 14 14 13 13 12 12 12 11 11 10 10 10 9 9 8
12 11 12 14 13 15 13 12 15 21 22 20 20 23 23 21 21 22 20 20 19 18 16 16 15 15 15 15 15 14 13 12 12 12 11 11 10 10 10 9 9 8 8 8
11 11 12 13 13 14 15 16 18 18 20 20 20 21 21 20 20 21 20 19 19 18 17 16 15 15 15 15 14 13 12 12 12 11 11 10 9 9 9 8 8 7 7 7
11 10 12 11 13 13 14 17 19 20 21 20 19 21 21 21 21 20 20 20 19 18 17 16 15 15 15 14 14 13 12 11 11 10 10 9 9 9 8 8 7 7 7 6
11 11 12 13 14 15 18 19 19 20 19 20 20 20 22 20 21 20 20 20 19 18 17 16 15 14 14 13 13 12 11 11 10 10 9 8 8 8 8 7 6 6 6 5
12 13 13 13 15 15 16 20 20 20 20 20 20 19 21 19 19 21 19 19 19 18 16 15 14 13 13 13 13 12 11 10 10 9 9 8 7 7 6 6 6 5 5 5
14 13 12 15 16 17 17 18 19 19 19 21 21 20 20 19 19 19 19 18 18 18 17 15 14 12 13 13 13 12 10 9 9 8 8 7 6 6 5 5 5 5 4 4
16 15 16 17 18 18 18 18 18 18 20 20 22 21 21 20 19 18 19 18 18 17 16 15 13 12 13 13 12 11 10 9 8 7 7 6 6 5 5 4 4 4 4 4
17 16 19 20 18 18 18 19 19 19 20 20 21 21 23 23 20 19 18 18 18 18 16 15 14 12 12 12 11 10 9 8 8 7 6 5 5 5 4 4 4 4 4 4
17 17 18 18 20 20 19 20 20 20 20 20 20 22 23 20 20 20 18 18 17 16 16 15 13 12 12 12 10 9 8 7 7 6 5 5 5 4 4 4 3 3 3 3
16 17 17 17 19 16 21 21 21 21 21 21 21 21 22 19 17 16 18 18 17 16 15 14 12 12 12 11 10 8 7 7 6 5 5 5 4 4 3 3 3 3 3 2
18 17 16 17 17 20 20 19 20 19 20 21 20 21 17 15 14 13 13 14 14 13 12 12 12 11 10 9 8 7 7 6 5 5 5 4 3 3 3 3 3 2 2 2
16 17 15 13 15 17 19 19 19 21 18 18 20 19 16 15 14 12 12 11 11 11 11 10 10 9 9 8 7 7 6 5 5 5 4 3 3 3 3 2 2 2 1 1
14 14 15 15 15 15 19 19 19 18 18 16 18 17 15 13 13 12 11 10 9 9 9 9 9 8 8 7 7 6 5 5 4 3 3 3 3 2 2 2 2 1 1 1
14 14 14 14 14 14 18 17 18 16 17 18 15 15 12 11 11 10 9 8 8 7 8 8 7 7 7 7 6 5 5 4 3 3 2 2 2 2 2 2 1 1 1 0
15 16 15 15 16 16 15 15 16 17 16 15 13 12 12 11 10 9 8 7 7 7 8 7 6 6 6 5 5 5 3 3 2 2 2 2 2 2 2 1 1 1 0 -0
16 16 16 17 15 15 15 14 15 16 14 13 12 12 11 10 9 9 8 7 7 7 7 7 6 5 4 4 4 4 3 2 2 2 2 2 2 1 1 0 1 0 -0 -1
15 14 15 15 14 14 14 14 14 13 12 12 12 11 11 10 9 8 7 7 6 7 7 7 6 4 4 3 3 2 2 2 1 1 1 1 1 0 0 0 0 -0 -0 -1
14 15 15 16 16 15 13 13 13 12 11 11 11 10 9 9 9 8 7 7 7 6 7 6 6 5 4 3 2 2 1 1 1 0 0 -0 -0 -1 -1 -1 -1 -1 -1 -2
Height
765 774 764 759 759 753 750 748 747 737 725 736 734 732 725 721 723 725 724 721 723 728 732 739 741 743 743 744 744 745 746 749 752 756 759 762 765 769 771 774 776 776 777 776
768 762 744 753 758 758 757 754 749 734 721 727 727 722 717 716 716 715 716 717 719 728 733 740 743 744 745 745 746 746 748 750 753 756 760 763 768 771 774 776 777 777 776 776
760 742 754 754 754 757 755 754 747 757 724 715 725 730 723 712 707 705 704 707 711 720 731 741 743 744 747 748 749 749 751 753 756 758 761 766 770 774 776 777 778 778 778 777
750 744 749 752 750 750 754 744 742 750 734 741 725 751 719 706 705 701 703 706 713 718 727 737 743 746 750 751 751 753 756 758 760 762 764 767 770 774 777 778 779 779 778 778
750 745 745 748 747 748 739 739 744 737 737 736 730 738 717 694 696 697 703 703 711 716 724 736 743 748 751 753 754 756 758 760 762 763 765 768 772 775 778 779 779 780 780 779
741 741 744 735 734 742 745 744 749 743 734 743 723 730 716 697 688 694 698 703 709 717 725 735 743 749 753 755 757 759 761 762 764 765 768 771 773 776 777 779 780 781 780 779
742 741 738 744 743 739 741 743 743 721 735 735 708 724 707 683 677 680 694 702 709 717 727 736 743 749 754 756 759 762 763 765 767 768 771 774 775 777 779 780 780 780 780 779
735 724 728 731 737 721 722 740 714 722 731 721 695 719 701 682 680 681 689 699 709 719 728 736 743 748 752 756 759 762 764 766 768 771 774 775 776 778 779 780 780 780 779 779
726 721 715 711 723 715 724 732 713 686 684 705 707 690 687 687 691 689 695 702 712 719 727 735 741 747 751 756 759 762 765 768 770 772 774 776 777 778 778 779 780 780 779 779
731 719 711 708 710 707 709 701 701 693 704 706 705 700 699 695 698 693 698 705 712 718 726 733 739 745 751 755 759 763 766 768 770 772 774 776 778 779 780 779 779 780 779 779
728 734 707 716 704 703 702 689 684 676 675 696 710 703 678 683 687 694 696 701 708 716 723 730 737 744 749 755 759 763 766 768 771 773 775 777 778 779 780 780 780 779 779 778
719 721 707 702 692 690 682 679 675 682 691 688 687 706 676 681 681 687 693 697 706 714 721 729 736 743 749 755 759 763 766 769 771 773 775 777 778 780 780 780 780 779 778 777
706 703 698 698 691 693 686 674 672 672 675 690 694 708 680 685 687 685 693 697 704 713 720 728 736 743 748 754 758 762 765 769 771 773 775 777 779 780 780 780 779 778 777 775
694 699 700 683 673 676 685 681 679 683 691 686 685 696 690 690 691 691 693 696 702 709 717 726 734 741 747 752 756 761 765 769 772 773 775 777 779 780 780 779 778 777 776 774
687 682 682 667 667 671 681 682 686 689 684 689 680 686 685 686 688 690 691 696 703 709 717 724 732 739 745 750 756 761 765 769 772 773 776 777 779 779 779 778 777 776 775 773
682 684 667 662 668 672 678 676 680 680 681 681 681 682 664 668 677 686 692 696 701 707 714 722 729 736 743 748 754 759 764 768 771 773 776 777 778 778 778 777 776 775 772 770
683 682 673 682 667 670 685 672 673 674 677 677 688 676 665 679 681 684 689 694 701 708 714 721 727 734 740 747 752 758 764 768 771 773 775 776 777 777 777 776 775 772 770 767
679 680 683 687 678 702 664 656 656 664 664 667 672 671 668 676 685 690 687 692 699 705 711 719 725 733 740 746 753 758 764 768 771 773 775 776 776 776 776 774 772 770 767 765
671 678 688 691 690 671 663 664 663 667 669 661 666 667 680 684 690 702 700 697 702 706 712 720 726 734 741 748 754 759 765 768 771 773 774 775 775 774 773 771 769 767 765 762
679 678 692 702 700 690 672 662 659 656 682 664 658 665 678 683 704 709 708 707 710 714 719 725 732 738 745 751 756 761 765 768 770 772 773 774 774 773 771 769 767 766 763 759
690 692 694 698 695 688 666 664 661 682 682 669 660 663 676 689 692 702 709 715 718 722 727 732 737 743 748 753 757 762 765 768 770 771 772 772 772 771 769 767 766 763 760 756
687 691 695 699 700 701 666 669 673 677 671 668 670 674 686 695 701 708 715 721 725 729 733 737 741 747 752 755 758 763 766 768 770 771 771 771 769 768 767 766 763 760 757 753
677 672 679 684 680 669 670 673 670 669 673 676 680 684 687 698 708 714 720 725 729 732 735 740 744 749 754 757 760 763 766 768 769 770 769 768 767 767 766 762 759 757 754 751
664 663 668 669 671 670 672 673 672 671 676 680 684 688 694 702 710 717 722 727 731 734 738 742 746 752 756 759 761 763 765 767 768 767 767 767 767 765 762 760 758 754 751 748
662 665 666 671 673 674 672 674 675 678 681 685 689 694 699 705 713 717 723 728 732 736 740 743 747 752 756 759 762 764 765 766 765 766 767 766 764 762 760 758 755 753 750 748
660 658 665 664 657 661 667 672 676 681 686 691 693 700 705 708 713 719 724 729 733 737 741 745 748 752 756 759 762 763 764 764 765 766 766 764 762 760 758 755 751 751 748 745
Wind_Speed
12 9 17 22 22 20 15 16 16 17 13 19 20 23 11 12 14 10 11 8 8 11 10 9 11 10 11 14 17 18 19 19 20 20 22 22 22 20 20 18 15 14 14 13
15 20 26 15 18 19 20 19 18 17 16 21 21 19 15 10 12 15 12 9 9 12 9 7 13 14 15 15 16 18 19 21 22 23 23 24 22 19 18 17 15 12 13 13
20 21 15 19 19 20 23 21 18 15 22 8 9 9 9 12 14 11 9 10 11 17 13 8 9 16 16 17 18 19 21 22 23 25 24 24 22 18 15 13 13 12 12 14
18 21 20 20 23 18 22 22 20 25 20 7 9 4 14 24 20 17 10 9 14 15 13 9 9 14 16 17 19 20 21 20 20 19 21 19 19 17 14 13 11 10 11 12
6 11 17 22 21 18 20 17 18 25 12 9 8 4 7 11 13 21 9 9 14 14 15 12 9 17 17 17 19 20 22 21 20 20 20 20 19 15 13 11 10 9 8 9
16 8 10 20 22 21 17 15 20 22 10 8 10 7 6 9 11 10 9 10 14 14 14 11 19 20 18 18 19 20 22 21 21 21 20 19 17 14 12 11 9 9 8 8
8 20 10 8 18 16 23 14 10 4 4 4 16 8 10 4 8 11 12 12 14 13 14 13 10 12 17 17 18 19 21 21 20 20 18 17 15 13 12 10 9 8 8 10
7 11 13 17 11 16 24 13 5 6 7 5 8 7 4 6 8 9 11 13 14 13 12 12 9 15 19 19 17 19 20 20 19 18 16 14 14 12 11 10 8 9 9 10
4 11 6 13 18 18 9 10 27 2 6 6 4 3 4 9 6 7 12 14 14 13 14 12 11 18 20 19 19 19 19 19 18 17 15 14 12 11 10 8 8 8 9 9
1 8 4 5 11 13 12 16 9 3 8 6 5 8 5 9 9 7 13 15 14 13 14 11 10 18 21 20 20 19 18 18 16 15 13 12 11 10 8 7 8 8 9 10
5 7 3 4 6 10 13 8 7 3 2 4 5 2 7 8 11 10 10 15 15 13 14 13 9 20 22 21 19 19 18 17 15 14 12 11 10 8 7 7 7 9 9 10
9 5 3 4 2 13 6 7 5 0 3 3 3 2 6 8 7 9 9 15 14 12 12 12 11 18 22 20 19 19 17 16 15 13 11 10 9 6 6 7 7 8 9 11
9 3 0 1 6 6 6 5 3 5 4 3 3 3 6 8 7 6 10 12 13 13 12 11 11 11 18 21 20 19 18 16 13 12 11 9 6 5 5 5 7 8 11 13
9 5 6 2 6 9 8 6 5 5 0 1 2 7 6 7 9 8 9 10 14 14 14 11 11 9 18 21 20 19 18 15 13 12 9 7 4 3 5 6 8 10 12 15
4 2 5 8 12 11 10 11 9 10 7 2 2 7 9 10 11 10 8 9 13 12 12 12 11 9 16 20 20 20 18 15 12 10 8 5 3 3 5 7 9 12 14 16
9 5 5 7 7 7 8 10 13 14 8 7 8 5 7 3 9 9 10 9 12 12 12 11 11 10 15 21 21 21 18 15 11 10 7 3 2 4 5 8 11 13 16 19
5 3 4 4 4 3 3 9 14 13 11 11 11 8 1 6 8 8 10 9 9 9 10 11 9 10 18 23 24 21 18 14 11 9 5 3 2 4 7 9 12 15 18 20
6 2 3 1 4 2 5 2 11 11 7 11 8 6 3 7 8 10 6 7 9 10 11 10 9 17 24 24 22 21 17 13 10 7 4 1 2 5 8 11 14 17 19 21
7 1 1 2 4 5 3 2 1 6 9 8 7 9 13 12 7 8 9 9 9 9 8 12 22 25 26 24 24 21 16 12 9 6 3 1 4 6 10 13 16 20 21 23
4 5 3 3 2 2 2 3 5 3 3 6 7 8 15 7 5 4 6 9 12 13 18 20 25 26 24 22 20 18 14 10 7 4 0 2 5 8 11 15 19 20 21 23
3 3 4 2 2 6 2 1 4 3 3 7 7 13 13 5 1 12 11 10 12 15 20 25 23 20 22 20 18 16 11 9 5 2 1 3 6 10 13 17 18 20 22 24
4 5 3 3 2 6 4 2 2 2 3 3 8 10 17 15 14 13 12 12 11 11 16 20 20 20 18 16 16 13 11 6 3 0 3 5 9 13 15 16 20 20 23 24
6 6 6 7 5 2 4 3 0 1 4 6 10 12 17 15 13 12 11 11 9 12 15 20 19 20 16 13 12 13 9 5 2 1 4 9 12 14 14 18 20 22 22 22
5 2 2 4 3 4 5 3 2 3 7 8 9 11 12 15 11 12 10 9 7 12 14 20 20 17 14 11 10 10 6 4 2 5 8 11 12 14 18 20 20 22 23 24
1 7 6 2 2 3 1 4 6 9 10 10 9 10 11 13 10 10 9 8 8 13 14 19 18 16 14 11 9 7 5 3 5 7 8 10 13 17 20 20 21 22 23 21
4 5 4 3 9 5 5 8 9 11 9 9 14 11 8 8 9 9 7 10 13 14 15 14 15 18 15 11 9 6 4 4 5 6 9 12 15 19 20 22 25 20 20 22
Wind_Direction
215 214 218 216 214 233 248 257 238 246 228 223 235 243 237 240 240 243 251 244 167 128 116 130 126 122 113 114 121 121 122 125 129 131 120 106 100 100 96 91 85 82 81 63
235 223 225 227 234 236 244 249 256 256 227 217 231 235 227 232 238 233 222 233 167 124 120 145 144 126 112 106 103 105 106 109 116 120 118 119 117 110 104 98 85 75 70 62
219 237 234 234 239 237 236 242 243 255 233 234 249 260 261 249 245 234 209 227 152 141 138 149 123 111 107 103 102 100 102 109 113 117 119 116 112 108 103 87 79 66 53 52
232 238 236 228 236 233 234 236 240 244 243 194 179 263 228 236 226 224 217 200 137 140 135 139 128 116 111 109 110 109 113 116 124 129 130 126 115 107 103 97 89 63 37 27
220 223 228 224 228 228 240 227 237 246 219 186 214 220 248 256 206 212 183 182 147 141 139 135 129 125 120 113 109 108 107 105 105 107 113 114 111 107 105 93 83 70 51 19
249 236 250 228 233 225 280 236 258 259 210 242 211 186 254 248 176 166 178 148 139 137 129 122 122 125 119 118 116 112 107 102 105 108 111 111 109 106 93 82 73 61 49 21
226 240 231 278 245 233 234 211 220 153 162 232 191 213 253 66 70 155 154 137 140 135 132 129 132 133 136 128 124 120 113 106 105 104 103 102 99 95 89 76 61 43 27 14
221 252 209 201 232 217 216 195 279 135 168 178 121 207 213 143 91 120 130 134 135 139 136 140 145 145 140 141 136 127 119 113 110 107 105 104 100 93 80 63 53 41 18 8
238 218 169 190 221 181 188 219 240 196 183 126 177 189 66 111 105 128 136 142 149 149 145 152 145 142 146 143 136 131 125 119 115 112 108 99 91 81 74 58 37 24 5 358
245 287 171 200 210 206 204 200 226 270 165 153 187 177 166 160 153 167 150 156 156 150 150 153 146 142 148 142 137 136 132 125 121 117 109 99 88 78 67 41 27 8 359 347
175 203 307 94 190 182 216 203 231 228 64 160 144 69 134 144 155 166 165 161 160 158 158 151 144 144 143 140 142 136 134 130 123 118 115 104 87 72 50 28 14 1 351 342
199 240 216 281 277 187 243 207 241 345 123 246 121 121 82 103 113 149 167 157 155 152 151 145 139 134 140 148 146 143 141 134 128 123 113 98 86 67 39 17 358 349 340 334
178 206 192 248 97 175 222 227 263 332 74 254 62 167 106 107 112 129 140 143 151 146 141 144 138 142 151 158 154 148 144 136 131 123 114 102 82 53 25 356 343 339 333 330
144 205 225 271 105 138 194 180 227 258 123 345 66 128 145 133 134 133 146 150 152 155 153 151 146 148 157 159 154 147 139 138 132 127 120 109 80 26 3 346 334 332 328 324
261 258 187 260 138 150 170 183 208 228 234 210 226 145 167 169 160 159 158 144 150 158 156 154 151 152 152 153 151 144 139 138 138 128 123 104 60 3 345 337 330 323 323 322
223 301 325 66 147 146 190 195 204 221 222 260 272 295 133 118 136 136 156 162 163 166 155 147 149 149 146 150 149 142 139 140 144 133 122 93 34 354 339 326 323 323 323 324
203 248 324 59 141 111 293 214 205 217 211 220 228 244 240 110 127 151 156 156 153 150 151 151 150 144 145 150 146 141 142 146 140 134 121 86 4 336 327 324 324 327 326 322
196 247 355 255 122 163 251 1 225 216 226 216 237 264 41 137 84 51 58 139 147 148 145 136 133 128 138 140 141 140 140 142 140 129 120 27 326 326 323 325 328 324 324 322
190 130 317 155 236 293 206 293 122 171 237 215 206 206 113 107 69 28 20 65 89 91 99 107 118 124 129 131 133 133 137 143 137 130 123 304 313 325 327 325 326 327 323 321
68 116 123 27 174 240 53 350 328 334 280 331 227 157 135 131 137 175 102 72 72 75 90 100 111 120 124 129 136 139 142 142 134 129 175 303 321 325 323 326 326 322 318 317
138 132 164 244 325 306 102 155 322 106 255 326 321 133 134 94 166 130 107 87 82 92 100 112 118 122 132 139 142 136 139 129 139 133 291 323 322 330 333 324 319 320 322 318
151 154 149 137 213 271 138 86 139 177 349 14 64 103 103 105 99 103 105 107 110 112 115 121 112 119 130 137 138 134 130 134 127 110 328 334 340 336 327 320 322 323 321 319
181 194 169 187 209 152 50 91 61 87 116 72 101 109 116 115 116 119 118 117 121 122 120 121 122 124 126 134 138 135 132 137 141 354 351 347 337 327 323 327 326 321 322 321
202 210 199 137 194 164 152 70 355 100 108 97 101 111 115 121 122 118 118 121 119 124 128 133 130 127 129 136 125 132 137 132 75 17 358 339 324 327 330 327 323 321 319 317
175 138 175 119 101 65 222 175 127 101 100 100 91 105 115 118 119 124 126 128 130 135 136 143 141 142 145 142 138 140 133 90 39 5 338 329 333 333 328 324 322 319 319 319
194 181 157 207 181 175 166 154 129 123 117 108 110 98 92 108 114 117 117 126 132 132 140 140 145 143 141 144 141 129 87 43 13 334 328 335 335 329 324 322 319 316 315 319